TimeEDT,TemperatureF,Dew PointF,Humidity,Sea Level PressureIn,VisibilityMPH,Wind Direction,Wind SpeedMPH,Gust SpeedMPH,PrecipitationIn,Events,Conditions,WindDirDegrees,DateUTC
12:51 AM,54.0,43.0,66,30.01,10.0,NW,8.1,-,N/A,,Clear,310,2012-10-07 04:51:00
1:51 AM,53.1,42.1,66,30.02,10.0,NW,6.9,-,N/A,,Scattered Clouds,310,2012-10-07 05:51:00
2:51 AM,51.8,41.0,67,30.03,10.0,NW,4.6,-,N/A,,Clear,310,2012-10-07 06:51:00
3:51 AM,52.0,37.9,59,30.02,10.0,NNW,6.9,-,N/A,,Scattered Clouds,330,2012-10-07 07:51:00
4:51 AM,50.0,37.9,63,30.04,10.0,North,3.5,-,N/A,,Scattered Clouds,360,2012-10-07 08:51:00
5:51 AM,48.9,39.9,71,30.07,10.0,West,5.8,-,N/A,,Partly Cloudy,280,2012-10-07 09:51:00
6:51 AM,50.0,39.9,68,30.07,10.0,WNW,5.8,-,N/A,,Mostly Cloudy,290,2012-10-07 10:51:00
7:51 AM,52.0,41.0,66,30.09,10.0,WNW,5.8,-,N/A,,Mostly Cloudy,300,2012-10-07 11:51:00
8:51 AM,52.0,37.0,57,30.09,10.0,North,8.1,-,N/A,,Mostly Cloudy,350,2012-10-07 12:51:00
9:51 AM,53.1,37.9,57,30.10,10.0,NNW,6.9,-,N/A,,Overcast,340,2012-10-07 13:51:00
10:51 AM,53.1,37.9,57,30.12,10.0,NW,6.9,-,0.00,Rain,Light Rain,320,2012-10-07 14:51:00
11:51 AM,51.1,42.1,71,30.11,9.0,Calm,Calm,-,0.02,Rain,Light Rain,0,2012-10-07 15:51:00
12:51 PM,52.0,45.0,77,30.10,10.0,Calm,Calm,-,0.03,Rain,Light Rain,0,2012-10-07 16:51:00
1:51 PM,52.0,45.0,77,30.07,10.0,South,3.5,-,0.02,,Overcast,190,2012-10-07 17:51:00
2:51 PM,53.1,46.0,77,30.06,10.0,Calm,Calm,-,N/A,,Overcast,0,2012-10-07 18:51:00
3:51 PM,54.0,46.0,75,30.04,10.0,NW,4.6,-,0.00,Rain,Light Rain,320,2012-10-07 19:51:00
4:51 PM,52.0,44.1,74,30.03,10.0,WNW,4.6,-,0.00,Rain,Light Rain,300,2012-10-07 20:51:00
5:51 PM,52.0,43.0,71,30.03,10.0,WSW,4.6,-,0.00,,Overcast,250,2012-10-07 21:51:00
6:51 PM,52.0,42.1,69,30.05,10.0,West,8.1,-,N/A,,Overcast,260,2012-10-07 22:51:00
7:51 PM,50.0,46.9,89,30.07,7.0,West,8.1,-,0.03,Rain,Light Rain,280,2012-10-07 23:51:00
8:51 PM,50.0,46.9,89,30.09,8.0,WSW,5.8,-,0.02,Rain,Light Rain,250,2012-10-08 00:51:00
9:51 PM,50.0,46.0,86,30.11,7.0,West,6.9,-,0.04,Rain,Light Rain,270,2012-10-08 01:51:00
10:51 PM,50.0,46.9,89,30.12,10.0,West,5.8,-,0.00,,Overcast,270,2012-10-08 02:51:00
11:51 PM,48.9,45.0,86,30.12,10.0,WNW,4.6,-,N/A,,Mostly Cloudy,300,2012-10-08 03:51:00